| time (UTC) | temp C | wind direction | speed KPH | gust KPH | rain 1hr cm | rain 24hr cm | rain mn cm | humidity % | barometer mb |
| 20260509201538 | 17 | 224 | 6.4 | 14.5 | 0.00 | 0.61 | 0.56 | 66 | 1008.1 |
| 20260509201018 | 17 | 153 | 3.2 | 14.5 | 0.00 | 0.61 | 0.56 | 67 | 1008.2 |
| 20260509200520 | 17 | 262 | 3.2 | 14.5 | 0.00 | 0.61 | 0.56 | 69 | 1008.2 |
| 20260509200045 | 17 | 218 | 6.4 | 20.9 | 0.00 | 0.61 | 0.56 | 69 | 1008.2 |
| 20260509195521 | 17 | 201 | 4.8 | 20.9 | 0.00 | 0.61 | 0.56 | 70 | 1008.4 |
| 20260509195020 | 17 | 281 | 6.4 | 19.3 | 0.00 | 0.61 | 0.56 | 70 | 1008.4 |
| 20260509194546 | 17 | 280 | 6.4 | 17.7 | 0.00 | 0.61 | 0.56 | 71 | 1008.5 |
| 20260509194022 | 17 | 229 | 6.4 | 17.7 | 0.00 | 0.61 | 0.56 | 70 | 1008.5 |
| 20260509193521 | 17 | 325 | 3.2 | 17.7 | 0.00 | 0.61 | 0.56 | 73 | 1008.7 |
| 20260509193038 | 16 | 148 | 6.4 | 17.7 | 0.00 | 0.61 | 0.56 | 72 | 1008.8 |
| 20260509192520 | 16 | 148 | 4.8 | 14.5 | 0.00 | 0.61 | 0.56 | 72 | 1008.9 |
| 20260509192019 | 16 | 133 | 4.8 | 14.5 | 0.00 | 0.61 | 0.56 | 71 | 1008.9 |
| 20260509191543 | 16 | 0 | 1.6 | 14.5 | 0.00 | 0.61 | 0.56 | 74 | 1009.1 |
| 20260509191021 | 16 | 162 | 4.8 | 14.5 | 0.00 | 0.61 | 0.56 | 72 | 1009.1 |
| 20260509190519 | 17 | 257 | 3.2 | 12.9 | 0.00 | 0.61 | 0.56 | 72 | 1009.1 |
| 20260509190038 | 16 | 304 | 3.2 | 14.5 | 0.00 | 0.61 | 0.56 | 74 | 1009.1 |
| 20260509185521 | 16 | 233 | 6.4 | 14.5 | 0.00 | 0.61 | 0.56 | 73 | 1009.1 |
| 20260509185019 | 16 | 234 | 4.8 | 12.9 | 0.00 | 0.61 | 0.56 | 75 | 1009.1 |
| 20260509184537 | 16 | 297 | 1.6 | 12.9 | 0.00 | 0.61 | 0.56 | 76 | 1009.1 |
| 20260509184022 | 16 | 158 | 4.8 | 12.9 | 0.00 | 0.61 | 0.56 | 77 | 1009.3 |
| 20260509183518 | 16 | 280 | 3.2 | 14.5 | 0.00 | 0.61 | 0.56 | 76 | 1009.3 |
| 20260509183051 | 15 | 178 | 4.8 | 14.5 | 0.00 | 0.61 | 0.56 | 78 | 1009.3 |
| 20260509182521 | 15 | 299 | 4.8 | 14.5 | 0.00 | 0.61 | 0.56 | 78 | 1009.4 |
| 20260509182022 | 15 | 81 | 1.6 | 8.0 | 0.00 | 0.61 | 0.56 | 82 | 1009.4 |
| 20260509181543 | 15 | 0 | 3.2 | 9.7 | 0.00 | 0.61 | 0.56 | 81 | 1009.5 |
| 20260509181019 | 14 | 224 | 3.2 | 11.3 | 0.00 | 0.61 | 0.56 | 81 | 1009.6 |
| 20260509180526 | 14 | 330 | 1.6 | 11.3 | 0.00 | 0.61 | 0.56 | 83 | 1009.6 |
| 20260509180042 | 14 | 150 | 3.2 | 8.0 | 0.00 | 0.61 | 0.56 | 82 | 1009.5 |
| 20260509175519 | 14 | 174 | 3.2 | 8.0 | 0.00 | 0.61 | 0.56 | 82 | 1009.6 |
| 20260509175029 | 14 | 115 | 3.2 | 9.7 | 0.00 | 0.61 | 0.56 | 82 | 1009.6 |
| 20260509174548 | 14 | 115 | 3.2 | 11.3 | 0.00 | 0.61 | 0.56 | 81 | 1009.5 |
| 20260509174024 | 14 | 171 | 4.8 | 19.3 | 0.00 | 0.61 | 0.56 | 80 | 1009.5 |
| 20260509173517 | 14 | 239 | 1.6 | 19.3 | 0.00 | 0.61 | 0.56 | 80 | 1009.3 |
| 20260509173042 | 14 | 251 | 6.4 | 17.7 | 0.00 | 0.61 | 0.56 | 82 | 1009.3 |
| 20260509172524 | 14 | 223 | 3.2 | 17.7 | 0.00 | 0.61 | 0.56 | 82 | 1009.2 |
| 20260509172021 | 14 | 252 | 8.0 | 17.7 | 0.00 | 0.61 | 0.56 | 81 | 1009.2 |
| 20260509171541 | 14 | 226 | 4.8 | 17.7 | 0.00 | 0.61 | 0.56 | 82 | 1009.1 |
| 20260509171019 | 14 | 138 | 6.4 | 17.7 | 0.00 | 0.61 | 0.56 | 83 | 1009.0 |
| 20260509170517 | 14 | 304 | 3.2 | 14.5 | 0.00 | 0.61 | 0.56 | 84 | 1009.1 |
| 20260509170035 | 13 | 184 | 3.2 | 16.1 | 0.00 | 0.61 | 0.56 | 86 | 1009.0 |
| 20260509165518 | 13 | 241 | 4.8 | 16.1 | 0.00 | 0.61 | 0.56 | 87 | 1009.1 |
| 20260509165018 | 13 | 276 | 4.8 | 11.3 | 0.00 | 0.61 | 0.56 | 88 | 1009.1 |
| 20260509164535 | 13 | 181 | 3.2 | 8.0 | 0.00 | 0.61 | 0.56 | 89 | 1009.1 |
| 20260509164018 | 13 | 295 | 0.0 | 11.3 | 0.00 | 0.61 | 0.56 | 91 | 1009.1 |
| 20260509163516 | 12 | 154 | 1.6 | 11.3 | 0.00 | 0.61 | 0.56 | 91 | 1009.1 |
| 20260509163046 | 12 | 304 | 3.2 | 11.3 | 0.00 | 0.61 | 0.56 | 90 | 1009.1 |
| 20260509162522 | 12 | 229 | 1.6 | 6.4 | 0.03 | 0.61 | 0.56 | 91 | 1009.0 |
| 20260509162019 | 11 | 172 | 1.6 | 8.0 | 0.03 | 0.61 | 0.56 | 91 | 1009.1 |
| 20260509161542 | 11 | 113 | 1.6 | 8.0 | 0.03 | 0.61 | 0.56 | 91 | 1009.1 |
| 20260509161020 | 11 | 148 | 3.2 | 8.0 | 0.03 | 0.61 | 0.56 | 91 | 1009.3 |
| 20260509160518 | 11 | 0 | 1.6 | 6.4 | 0.03 | 0.61 | 0.56 | 91 | 1009.3 |
| 20260509160034 | 11 | 331 | 1.6 | 6.4 | 0.03 | 0.61 | 0.56 | 91 | 1009.1 |
| 20260509155519 | 11 | 0 | 1.6 | 8.0 | 0.05 | 0.61 | 0.56 | 92 | 1009.1 |
| 20260509155018 | 11 | 166 | 1.6 | 8.0 | 0.05 | 0.61 | 0.56 | 92 | 1008.8 |
| 20260509154534 | 11 | 266 | 1.6 | 8.0 | 0.05 | 0.61 | 0.56 | 92 | 1008.7 |
| 20260509154017 | 11 | 217 | 1.6 | 6.4 | 0.05 | 0.61 | 0.56 | 92 | 1008.6 |
| 20260509153518 | 11 | 184 | 0.0 | 9.7 | 0.08 | 0.61 | 0.56 | 92 | 1008.7 |
| 20260509153048 | 11 | 193 | 0.0 | 11.3 | 0.08 | 0.61 | 0.56 | 92 | 1008.4 |
| 20260509152518 | 11 | 273 | 1.6 | 11.3 | 0.05 | 0.58 | 0.53 | 92 | 1008.9 |
| 20260509152018 | 11 | 293 | 3.2 | 14.5 | 0.05 | 0.58 | 0.53 | 92 | 1009.0 |
| 20260509151541 | 11 | 0 | 4.8 | 14.5 | 0.05 | 0.58 | 0.53 | 92 | 1009.0 |
| 20260509151021 | 11 | 281 | 3.2 | 12.9 | 0.08 | 0.58 | 0.53 | 92 | 1009.1 |
| 20260509150521 | 11 | 289 | 3.2 | 12.9 | 0.08 | 0.58 | 0.53 | 92 | 1009.0 |
| 20260509150042 | 11 | 211 | 3.2 | 11.3 | 0.08 | 0.58 | 0.53 | 92 | 1009.0 |
| 20260509145520 | 11 | 72 | 1.6 | 11.3 | 0.08 | 0.56 | 0.51 | 92 | 1009.1 |
| 20260509145017 | 11 | 174 | 3.2 | 14.5 | 0.08 | 0.56 | 0.51 | 92 | 1009.0 |
| 20260509144534 | 11 | 186 | 3.2 | 14.5 | 0.10 | 0.56 | 0.51 | 92 | 1009.0 |
| 20260509144017 | 11 | 220 | 1.6 | 11.3 | 0.10 | 0.56 | 0.51 | 92 | 1009.0 |
| 20260509143518 | 11 | 181 | 3.2 | 11.3 | 0.08 | 0.53 | 0.48 | 92 | 1009.0 |
| 20260509143038 | 10 | 219 | 4.8 | 12.9 | 0.10 | 0.53 | 0.48 | 92 | 1009.1 |
| 20260509142518 | 10 | 207 | 3.2 | 12.9 | 0.10 | 0.53 | 0.48 | 92 | 1009.1 |
| 20260509142017 | 10 | 202 | 3.2 | 9.7 | 0.10 | 0.53 | 0.48 | 92 | 1009.3 |
| 20260509141534 | 10 | 219 | 1.6 | 12.9 | 0.10 | 0.53 | 0.48 | 92 | 1009.3 |
| 20260509141016 | 10 | 255 | 3.2 | 12.9 | 0.08 | 0.51 | 0.46 | 92 | 1009.3 |
| 20260509140517 | 10 | 234 | 4.8 | 12.9 | 0.10 | 0.51 | 0.46 | 92 | 1009.3 |
| 20260509140050 | 10 | 231 | 3.2 | 9.7 | 0.10 | 0.51 | 0.46 | 92 | 1009.4 |
| 20260509135518 | 10 | 207 | 1.6 | 9.7 | 0.08 | 0.48 | 0.43 | 92 | 1009.3 |
| 20260509135017 | 10 | 139 | 3.2 | 8.0 | 0.10 | 0.48 | 0.43 | 92 | 1009.4 |
| 20260509134536 | 10 | 0 | 1.6 | 6.4 | 0.10 | 0.46 | 0.41 | 92 | 1009.3 |
| 20260509134017 | 10 | 165 | 1.6 | 8.0 | 0.10 | 0.46 | 0.41 | 92 | 1009.3 |
| 20260509133516 | 10 | 231 | 1.6 | 8.0 | 0.10 | 0.46 | 0.41 | 92 | 1009.4 |
| 20260509133035 | 10 | 205 | 1.6 | 8.0 | 0.10 | 0.43 | 0.38 | 92 | 1009.4 |
| 20260509132519 | 10 | 188 | 3.2 | 8.0 | 0.10 | 0.43 | 0.38 | 92 | 1009.5 |
| 20260509132018 | 10 | 156 | 1.6 | 14.5 | 0.10 | 0.43 | 0.38 | 92 | 1009.5 |
| 20260509131535 | 10 | 258 | 3.2 | 14.5 | 0.10 | 0.43 | 0.38 | 92 | 1009.6 |
| 20260509131017 | 10 | 235 | 3.2 | 11.3 | 0.10 | 0.43 | 0.38 | 92 | 1009.5 |
| 20260509130520 | 10 | 300 | 1.6 | 9.7 | 0.10 | 0.41 | 0.36 | 92 | 1009.5 |
| 20260509130035 | 10 | 193 | 3.2 | 9.7 | 0.10 | 0.41 | 0.36 | 92 | 1009.5 |
| 20260509125523 | 10 | 198 | 1.6 | 9.7 | 0.10 | 0.41 | 0.36 | 92 | 1009.5 |
| 20260509125019 | 10 | 247 | 0.0 | 4.8 | 0.10 | 0.38 | 0.33 | 92 | 1009.5 |
| 20260509124540 | 10 | 192 | 1.6 | 9.7 | 0.10 | 0.36 | 0.30 | 92 | 1009.6 |
| 20260509124018 | 10 | 158 | 1.6 | 9.7 | 0.10 | 0.36 | 0.30 | 92 | 1009.6 |
| 20260509123518 | 10 | 170 | 0.0 | 6.4 | 0.13 | 0.36 | 0.30 | 92 | 1009.7 |
| 20260509123047 | 10 | 218 | 1.6 | 6.4 | 0.10 | 0.33 | 0.28 | 92 | 1009.6 |
| 20260509122517 | 10 | 96 | 0.0 | 6.4 | 0.13 | 0.33 | 0.28 | 92 | 1009.7 |
| 20260509122018 | 10 | 0 | 0.0 | 6.4 | 0.13 | 0.33 | 0.28 | 92 | 1009.7 |
| 20260509121537 | 10 | 105 | 1.6 | 9.7 | 0.15 | 0.33 | 0.28 | 92 | 1009.7 |
| 20260509121018 | 10 | 215 | 1.6 | 9.7 | 0.13 | 0.30 | 0.25 | 92 | 1009.8 |
| 20260509120519 | 10 | 191 | 3.2 | 9.7 | 0.13 | 0.30 | 0.25 | 91 | 1009.7 |
| 20260509120037 | 10 | 122 | 1.6 | 11.3 | 0.15 | 0.30 | 0.25 | 91 | 1009.7 |
| 20260509115517 | 10 | 155 | 3.2 | 11.3 | 0.15 | 0.30 | 0.25 | 91 | 1009.7 |
| 20260509115017 | 10 | 276 | 3.2 | 8.0 | 0.13 | 0.28 | 0.23 | 91 | 1009.7 |
| 20260509114536 | 10 | 231 | 1.6 | 8.0 | 0.10 | 0.25 | 0.20 | 91 | 1009.6 |
| 20260509114019 | 10 | 100 | 1.6 | 9.7 | 0.10 | 0.25 | 0.20 | 91 | 1009.5 |
| 20260509113519 | 10 | 246 | 1.6 | 9.7 | 0.10 | 0.23 | 0.18 | 91 | 1009.5 |
| 20260509113039 | 10 | 149 | 3.2 | 9.7 | 0.10 | 0.23 | 0.18 | 91 | 1009.6 |
| 20260509112518 | 10 | 219 | 1.6 | 9.7 | 0.08 | 0.20 | 0.15 | 91 | 1009.6 |
| 20260509112018 | 10 | 0 | 3.2 | 11.3 | 0.08 | 0.20 | 0.15 | 91 | 1009.5 |
| 20260509111538 | 10 | 194 | 1.6 | 11.3 | 0.05 | 0.18 | 0.13 | 91 | 1009.5 |
| 20260509111020 | 10 | 248 | 3.2 | 8.0 | 0.08 | 0.18 | 0.13 | 90 | 1009.4 |
| 20260509110518 | 10 | 153 | 1.6 | 4.8 | 0.08 | 0.18 | 0.13 | 90 | 1009.4 |
| 20260509110039 | 10 | 84 | 0.0 | 8.0 | 0.05 | 0.15 | 0.10 | 90 | 1009.4 |
| 20260509105517 | 10 | 201 | 1.6 | 8.0 | 0.05 | 0.15 | 0.10 | 90 | 1009.4 |
| 20260509105018 | 10 | 143 | 1.6 | 9.7 | 0.05 | 0.15 | 0.10 | 90 | 1009.4 |
| 20260509104540 | 10 | 227 | 1.6 | 9.7 | 0.05 | 0.15 | 0.10 | 90 | 1009.4 |
| 20260509104018 | 10 | 263 | 0.0 | 9.7 | 0.05 | 0.15 | 0.10 | 90 | 1009.4 |
| 20260509103518 | 10 | 231 | 1.6 | 9.7 | 0.03 | 0.13 | 0.08 | 90 | 1009.4 |
| 20260509103038 | 10 | 178 | 0.0 | 4.8 | 0.03 | 0.13 | 0.08 | 90 | 1009.5 |
| 20260509102516 | 10 | 226 | 1.6 | 4.8 | 0.05 | 0.13 | 0.08 | 90 | 1009.4 |
| 20260509102018 | 10 | 143 | 0.0 | 8.0 | 0.05 | 0.13 | 0.08 | 89 | 1009.4 |
| 20260509101536 | 10 | 174 | 1.6 | 9.7 | 0.05 | 0.13 | 0.08 | 89 | 1009.4 |
| 20260509101016 | 10 | 167 | 3.2 | 9.7 | 0.03 | 0.10 | 0.05 | 89 | 1009.3 |
| 20260509100517 | 10 | 217 | 3.2 | 9.7 | 0.05 | 0.10 | 0.05 | 89 | 1009.4 |
| 20260509100033 | 10 | 89 | 1.6 | 8.0 | 0.05 | 0.10 | 0.05 | 89 | 1009.4 |
| 20260509095521 | 10 | 143 | 1.6 | 8.0 | 0.05 | 0.10 | 0.05 | 89 | 1009.5 |
| 20260509095017 | 10 | 244 | 0.0 | 9.7 | 0.05 | 0.10 | 0.05 | 89 | 1009.5 |
| 20260509094542 | 10 | 0 | 3.2 | 9.7 | 0.05 | 0.10 | 0.05 | 89 | 1009.5 |
| 20260509094018 | 10 | 158 | 3.2 | 11.3 | 0.05 | 0.10 | 0.05 | 89 | 1009.6 |
| 20260509093518 | 10 | 217 | 1.6 | 11.3 | 0.05 | 0.10 | 0.05 | 90 | 1009.7 |
| 20260509093043 | 10 | 212 | 3.2 | 11.3 | 0.05 | 0.10 | 0.05 | 90 | 1009.7 |
| 20260509092517 | 9 | 203 | 1.6 | 8.0 | 0.03 | 0.08 | 0.03 | 91 | 1009.8 |
| 20260509092021 | 9 | 214 | 1.6 | 8.0 | 0.03 | 0.08 | 0.03 | 91 | 1009.9 |
| 20260509091534 | 9 | 0 | 0.0 | 6.4 | 0.03 | 0.08 | 0.03 | 91 | 1009.8 |
| 20260509091017 | 9 | 147 | 1.6 | 6.4 | 0.00 | 0.05 | 0.00 | 92 | 1009.8 |
| 20260509090520 | 9 | 0 | 0.0 | 4.8 | 0.00 | 0.05 | 0.00 | 92 | 1009.8 |
| 20260509090034 | 9 | 122 | 0.0 | 1.6 | 0.00 | 0.05 | 0.00 | 92 | 1009.8 |
| 20260509085519 | 9 | 0 | 0.0 | 3.2 | 0.00 | 0.05 | 0.00 | 92 | 1009.8 |
| 20260509085017 | 9 | 103 | 0.0 | 3.2 | 0.00 | 0.05 | 0.00 | 92 | 1009.7 |
| 20260509084539 | 8 | 92 | 0.0 | 1.6 | 0.00 | 0.05 | 0.00 | 92 | 1009.8 |
| 20260509084023 | 8 | 0 | 0.0 | 1.6 | 0.00 | 0.05 | 0.00 | 92 | 1009.7 |
| 20260509083520 | 8 | 0 | 0.0 | 0.0 | 0.00 | 0.05 | 0.00 | 92 | 1009.6 |
| 20260509083038 | 8 | 0 | 0.0 | 0.0 | 0.00 | 0.05 | 0.00 | 92 | 1009.7 |
| 20260509082517 | 8 | 0 | 0.0 | 0.0 | 0.00 | 0.05 | 0.00 | 92 | 1009.6 |
| 20260509082019 | 8 | 0 | 0.0 | 3.2 | 0.00 | 0.05 | 0.00 | 92 | 1009.7 |
| 20260509081537 | 8 | 0 | 0.0 | 4.8 | 0.00 | 0.05 | 0.00 | 92 | 1009.6 |
| 20260509081019 | 8 | 0 | 1.6 | 4.8 | 0.00 | 0.05 | 0.00 | 92 | 1009.7 |
| 20260509080518 | 8 | 0 | 0.0 | 1.6 | 0.00 | 0.05 | 0.00 | 91 | 1009.4 |
| 20260509080034 | 8 | 0 | 0.0 | 1.6 | 0.00 | 0.05 | 0.00 | 91 | 1009.4 |
| 20260509075517 | 8 | 279 | 0.0 | 1.6 | 0.00 | 0.05 | 0.00 | 91 | 1009.3 |
| 20260509075017 | 9 | 0 | 0.0 | 0.0 | 0.00 | 0.05 | 0.00 | 91 | 1009.1 |
| 20260509074545 | 9 | 0 | 0.0 | 0.0 | 0.00 | 0.05 | 0.00 | 91 | 1008.9 |
| 20260509074016 | 9 | 0 | 0.0 | 0.0 | 0.00 | 0.05 | 0.00 | 90 | 1008.8 |
| 20260509073521 | 8 | 0 | 0.0 | 0.0 | 0.00 | 0.05 | 0.00 | 90 | 1008.8 |
| 20260509073042 | 8 | 0 | 0.0 | 0.0 | 0.00 | 0.05 | 0.00 | 90 | 1008.8 |
| 20260509072517 | 8 | 0 | 0.0 | 0.0 | 0.00 | 0.05 | 0.00 | 90 | 1008.9 |
| 20260509072022 | 8 | 0 | 0.0 | 0.0 | 0.00 | 0.05 | 0.00 | 90 | 1008.9 |
| 20260509071538 | 8 | 0 | 0.0 | 1.6 | 0.00 | 0.05 | 0.00 | 91 | 1008.9 |
| 20260509071016 | 8 | 0 | 0.0 | 1.6 | 0.00 | 0.05 | 0.00 | 91 | 1008.8 |
| 20260509070521 | 8 | 0 | 0.0 | 1.6 | 0.00 | 0.05 | 0.00 | 91 | 1008.8 |
| 20260509070042 | 8 | 0 | 0.0 | 1.6 | 0.00 | 0.05 | 0.00 | 91 | 1008.9 |
| 20260509065516 | 8 | 0 | 0.0 | 0.0 | 0.00 | 0.05 | 0.00 | 91 | 1009.0 |
| 20260509065019 | 8 | 0 | 0.0 | 0.0 | 0.00 | 0.05 | 0.00 | 91 | 1009.2 |
| 20260509064546 | 8 | 0 | 0.0 | 0.0 | 0.00 | 0.05 | 0.00 | 91 | 1009.4 |
| 20260509064017 | 8 | 0 | 0.0 | 0.0 | 0.00 | 0.05 | 0.00 | 91 | 1009.4 |
| 20260509063523 | 8 | 0 | 0.0 | 0.0 | 0.00 | 0.05 | 0.00 | 91 | 1009.5 |
| 20260509063034 | 8 | 0 | 0.0 | 0.0 | 0.00 | 0.05 | 0.00 | 91 | 1009.5 |
| 20260509062518 | 8 | 0 | 0.0 | 1.6 | 0.00 | 0.05 | 0.00 | 91 | 1009.6 |
| 20260509062018 | 8 | 0 | 0.0 | 1.6 | 0.00 | 0.05 | 0.00 | 91 | 1009.6 |
| 20260509061534 | 8 | 142 | 0.0 | 1.6 | 0.00 | 0.05 | 0.00 | 91 | 1009.7 |
| 20260509061019 | 8 | 0 | 0.0 | 0.0 | 0.00 | 0.05 | 0.00 | 91 | 1009.9 |
| 20260509060518 | 8 | 0 | 0.0 | 0.0 | 0.00 | 0.05 | 0.00 | 91 | 1010.0 |
| 20260509060040 | 8 | 0 | 0.0 | 0.0 | 0.00 | 0.05 | 0.00 | 90 | 1010.1 |
| 20260509055522 | 8 | 0 | 0.0 | 0.0 | 0.00 | 0.05 | 0.00 | 90 | 1010.2 |
| 20260509055020 | 8 | 0 | 0.0 | 0.0 | 0.00 | 0.05 | 0.00 | 90 | 1010.2 |
| 20260509054551 | 9 | 0 | 0.0 | 0.0 | 0.00 | 0.05 | 0.00 | 90 | 1010.1 |
| 20260509054019 | 9 | 0 | 0.0 | 1.6 | 0.00 | 0.05 | 0.00 | 90 | 1010.1 |
| 20260509053520 | 9 | 0 | 0.0 | 1.6 | 0.00 | 0.05 | 0.00 | 90 | 1010.3 |
| 20260509053037 | 9 | 0 | 0.0 | 1.6 | 0.00 | 0.05 | 0.00 | 90 | 1010.3 |
| 20260509052518 | 9 | 0 | 0.0 | 3.2 | 0.00 | 0.05 | 0.00 | 90 | 1010.4 |
| 20260509052019 | 9 | 143 | 0.0 | 3.2 | 0.00 | 0.05 | 0.00 | 90 | 1010.4 |
| 20260509051537 | 9 | 109 | 0.0 | 3.2 | 0.00 | 0.05 | 0.00 | 90 | 1010.3 |
| 20260509051018 | 9 | 0 | 0.0 | 3.2 | 0.00 | 0.05 | 0.00 | 90 | 1010.4 |
| 20260509050517 | 9 | 102 | 1.6 | 3.2 | 0.00 | 0.05 | 0.00 | 90 | 1010.4 |
| 20260509050045 | 9 | 125 | 1.6 | 3.2 | 0.00 | 0.05 | 0.00 | 90 | 1010.4 |
| 20260509045518 | 9 | 0 | 0.0 | 4.8 | 0.00 | 0.05 | 0.00 | 90 | 1010.4 |
| 20260509045017 | 9 | 76 | 0.0 | 4.8 | 0.00 | 0.05 | 0.00 | 90 | 1010.4 |
| 20260509044539 | 9 | 113 | 1.6 | 4.8 | 0.00 | 0.05 | 0.00 | 90 | 1010.4 |
| 20260509044020 | 9 | 0 | 3.2 | 4.8 | 0.00 | 0.05 | 0.00 | 90 | 1010.5 |
| 20260509043519 | 9 | 91 | 0.0 | 3.2 | 0.00 | 0.05 | 0.00 | 90 | 1010.5 |
| 20260509043052 | 9 | 0 | 0.0 | 0.0 | 0.00 | 0.05 | 0.00 | 89 | 1010.8 |
| 20260509042520 | 9 | 0 | 0.0 | 3.2 | 0.00 | 0.05 | 0.00 | 89 | 1010.8 |
| 20260509042022 | 10 | 0 | 0.0 | 3.2 | 0.00 | 0.05 | 0.00 | 90 | 1010.7 |
| 20260509041538 | 10 | 131 | 1.6 | 4.8 | 0.00 | 0.05 | 0.00 | 89 | 1010.7 |
| 20260509041018 | 10 | 119 | 1.6 | 4.8 | 0.00 | 0.05 | 0.00 | 89 | 1010.8 |
| 20260509040519 | 10 | 127 | 1.6 | 3.2 | 0.03 | 0.05 | 0.00 | 89 | 1010.9 |
| 20260509040037 | 10 | 96 | 0.0 | 3.2 | 0.03 | 0.05 | 0.00 | 89 | 1011.1 |
| 20260509035525 | 10 | 124 | 1.6 | 3.2 | 0.03 | 0.05 | 0.05 | 89 | 1011.2 |
| 20260509035019 | 10 | 0 | 0.0 | 1.6 | 0.03 | 0.05 | 0.05 | 89 | 1011.3 |
| 20260509034535 | 10 | 0 | 0.0 | 1.6 | 0.03 | 0.05 | 0.05 | 89 | 1011.4 |
| 20260509034020 | 10 | 0 | 0.0 | 1.6 | 0.03 | 0.05 | 0.05 | 89 | 1011.4 |
| 20260509033519 | 10 | 0 | 0.0 | 1.6 | 0.03 | 0.05 | 0.05 | 89 | 1011.5 |
| 20260509033040 | 10 | 0 | 0.0 | 1.6 | 0.03 | 0.05 | 0.05 | 88 | 1011.7 |
| 20260509032519 | 10 | 0 | 0.0 | 3.2 | 0.03 | 0.05 | 0.05 | 88 | 1011.7 |
| 20260509032019 | 10 | 0 | 0.0 | 3.2 | 0.03 | 0.05 | 0.05 | 88 | 1011.7 |
| 20260509031552 | 10 | 113 | 0.0 | 1.6 | 0.05 | 0.05 | 0.05 | 88 | 1011.8 |
| 20260509031021 | 10 | 119 | 0.0 | 1.6 | 0.05 | 0.05 | 0.05 | 88 | 1011.9 |
| 20260509030521 | 10 | 0 | 0.0 | 1.6 | 0.03 | 0.03 | 0.03 | 88 | 1011.9 |
| 20260509030039 | 10 | 72 | 0.0 | 1.6 | 0.03 | 0.03 | 0.03 | 88 | 1011.9 |
| 20260509025519 | 10 | 0 | 0.0 | 1.6 | 0.03 | 0.03 | 0.03 | 88 | 1011.9 |
| 20260509025019 | 10 | 0 | 0.0 | 3.2 | 0.03 | 0.03 | 0.03 | 88 | 1011.9 |
| 20260509024539 | 10 | 0 | 1.6 | 3.2 | 0.03 | 0.03 | 0.03 | 87 | 1012.1 |
| 20260509024020 | 10 | 0 | 0.0 | 3.2 | 0.03 | 0.03 | 0.03 | 87 | 1012.1 |
| 20260509023519 | 10 | 289 | 0.0 | 3.2 | 0.03 | 0.03 | 0.03 | 87 | 1012.1 |
| 20260509023035 | 10 | 0 | 1.6 | 3.2 | 0.03 | 0.03 | 0.03 | 86 | 1012.1 |
| 20260509022520 | 10 | 0 | 0.0 | 1.6 | 0.03 | 0.03 | 0.03 | 86 | 1012.1 |
| 20260509022018 | 10 | 0 | 0.0 | 3.2 | 0.03 | 0.03 | 0.03 | 85 | 1012.1 |
| 20260509021534 | 10 | 0 | 0.0 | 3.2 | 0.00 | 0.00 | 0.00 | 85 | 1012.0 |
| 20260509021019 | 10 | 297 | 0.0 | 1.6 | 0.00 | 0.00 | 0.00 | 84 | 1011.9 |
| 20260509020520 | 10 | 0 | 0.0 | 0.0 | 0.00 | 0.00 | 0.00 | 84 | 1011.7 |
| 20260509020039 | 10 | 0 | 0.0 | 0.0 | 0.00 | 0.00 | 0.00 | 83 | 1011.6 |
| 20260509015519 | 10 | 0 | 0.0 | 0.0 | 0.00 | 0.00 | 0.00 | 83 | 1011.4 |
| 20260509015018 | 11 | 0 | 0.0 | 1.6 | 0.00 | 0.00 | 0.00 | 81 | 1011.5 |
| 20260509014536 | 11 | 0 | 0.0 | 3.2 | 0.00 | 0.00 | 0.00 | 80 | 1011.4 |
| 20260509014020 | 11 | 0 | 0.0 | 3.2 | 0.00 | 0.00 | 0.00 | 79 | 1011.4 |
| 20260509013517 | 11 | 340 | 0.0 | 3.2 | 0.00 | 0.00 | 0.00 | 78 | 1011.2 |
| 20260509013041 | 11 | 0 | 0.0 | 3.2 | 0.00 | 0.00 | 0.00 | 78 | 1011.3 |
| 20260509012518 | 11 | 326 | 1.6 | 4.8 | 0.00 | 0.00 | 0.00 | 77 | 1011.3 |
| 20260509012017 | 11 | 180 | 0.0 | 4.8 | 0.00 | 0.00 | 0.00 | 75 | 1011.0 |
| 20260509011533 | 11 | 134 | 1.6 | 4.8 | 0.00 | 0.00 | 0.00 | 75 | 1010.8 |
| 20260509011021 | 11 | 101 | 0.0 | 3.2 | 0.00 | 0.00 | 0.00 | 75 | 1010.7 |
| 20260509010520 | 11 | 90 | 0.0 | 3.2 | 0.00 | 0.00 | 0.00 | 76 | 1010.7 |
| 20260509010035 | 11 | 110 | 1.6 | 4.8 | 0.00 | 0.00 | 0.00 | 75 | 1010.6 |
| 20260509005520 | 11 | 130 | 1.6 | 4.8 | 0.00 | 0.00 | 0.00 | 75 | 1010.6 |
| 20260509005017 | 11 | 0 | 1.6 | 4.8 | 0.00 | 0.00 | 0.00 | 76 | 1010.5 |
| 20260509004549 | 11 | 123 | 0.0 | 4.8 | 0.00 | 0.00 | 0.00 | 76 | 1010.5 |
| 20260509004017 | 11 | 110 | 1.6 | 4.8 | 0.00 | 0.00 | 0.00 | 76 | 1010.6 |
| 20260509003519 | 11 | 111 | 0.0 | 4.8 | 0.00 | 0.00 | 0.00 | 75 | 1010.6 |
| 20260509003040 | 11 | 104 | 1.6 | 4.8 | 0.00 | 0.00 | 0.00 | 75 | 1010.6 |
| 20260509002517 | 11 | 107 | 1.6 | 4.8 | 0.00 | 0.00 | 0.00 | 76 | 1010.6 |
| 20260509002025 | 11 | 124 | 1.6 | 3.2 | 0.00 | 0.00 | 0.00 | 76 | 1010.6 |
| 20260509001538 | 11 | 0 | 0.0 | 1.6 | 0.00 | 0.00 | 0.00 | 76 | 1010.6 |
| 20260509001019 | 11 | 125 | 0.0 | 1.6 | 0.00 | 0.00 | 0.00 | 75 | 1010.6 |
| 20260509000519 | 11 | 89 | 0.0 | 3.2 | 0.00 | 0.00 | 0.00 | 75 | 1010.6 |
| 20260509000044 | 12 | 0 | 0.0 | 4.8 | 0.00 | 0.00 | 0.00 | 75 | 1010.6 |
| 20260508235518 | 12 | 0 | 1.6 | 4.8 | 0.00 | 0.00 | 0.00 | 74 | 1010.6 |
| 20260508235018 | 12 | 0 | 0.0 | 0.0 | 0.00 | 0.00 | 0.00 | 75 | 1010.7 |
| 20260508234534 | 12 | 0 | 0.0 | 0.0 | 0.00 | 0.00 | 0.00 | 74 | 1010.9 |
| 20260508234020 | 12 | 0 | 0.0 | 0.0 | 0.00 | 0.00 | 0.00 | 74 | 1010.8 |
| 20260508233517 | 12 | 0 | 0.0 | 0.0 | 0.00 | 0.00 | 0.00 | 74 | 1010.9 |
| 20260508233034 | 12 | 0 | 0.0 | 0.0 | 0.00 | 0.00 | 0.00 | 73 | 1010.9 |
| 20260508232517 | 12 | 0 | 0.0 | 0.0 | 0.00 | 0.00 | 0.00 | 73 | 1010.7 |
| 20260508232019 | 12 | 0 | 0.0 | 0.0 | 0.00 | 0.00 | 0.00 | 73 | 1010.7 |
| 20260508231548 | 12 | 0 | 0.0 | 0.0 | 0.00 | 0.00 | 0.00 | 73 | 1010.7 |
| 20260508231019 | 12 | 0 | 0.0 | 0.0 | 0.00 | 0.00 | 0.00 | 74 | 1010.8 |
| 20260508230521 | 12 | 0 | 0.0 | 0.0 | 0.00 | 0.00 | 0.00 | 74 | 1010.9 |
| 20260508230040 | 12 | 0 | 0.0 | 0.0 | 0.00 | 0.00 | 0.00 | 72 | 1010.9 |
| 20260508225519 | 12 | 0 | 0.0 | 0.0 | 0.00 | 0.00 | 0.00 | 72 | 1011.0 |
| 20260508225039 | 12 | 0 | 0.0 | 0.0 | 0.00 | 0.00 | 0.00 | 71 | 1011.0 |
| 20260508224540 | 12 | 0 | 0.0 | 0.0 | 0.00 | 0.00 | 0.00 | 71 | 1011.0 |
| 20260508224019 | 12 | 0 | 0.0 | 0.0 | 0.00 | 0.00 | 0.00 | 70 | 1010.9 |
| 20260508223516 | 13 | 0 | 0.0 | 0.0 | 0.00 | 0.00 | 0.00 | 69 | 1010.9 |
| 20260508223037 | 13 | 0 | 0.0 | 0.0 | 0.00 | 0.00 | 0.00 | 66 | 1010.9 |
| 20260508222518 | 13 | 0 | 0.0 | 0.0 | 0.00 | 0.00 | 0.00 | 65 | 1010.7 |
| 20260508222017 | 13 | 0 | 0.0 | 0.0 | 0.00 | 0.00 | 0.00 | 65 | 1010.8 |
| 20260508221539 | 13 | 0 | 0.0 | 0.0 | 0.00 | 0.00 | 0.00 | 65 | 1010.8 |
| 20260508221020 | 13 | 0 | 0.0 | 0.0 | 0.00 | 0.00 | 0.00 | 62 | 1010.7 |
| 20260508220518 | 13 | 0 | 0.0 | 0.0 | 0.00 | 0.00 | 0.00 | 63 | 1010.8 |
| 20260508220041 | 13 | 0 | 0.0 | 0.0 | 0.00 | 0.00 | 0.00 | 62 | 1010.8 |
| 20260508215520 | 13 | 0 | 0.0 | 0.0 | 0.00 | 0.00 | 0.00 | 62 | 1010.8 |
| 20260508215017 | 13 | 0 | 0.0 | 0.0 | 0.00 | 0.00 | 0.00 | 63 | 1010.8 |
| 20260508214542 | 13 | 0 | 0.0 | 1.6 | 0.00 | 0.00 | 0.00 | 65 | 1010.8 |
| 20260508214017 | 13 | 0 | 0.0 | 1.6 | 0.00 | 0.00 | 0.00 | 63 | 1010.9 |
| 20260508213516 | 13 | 259 | 0.0 | 4.8 | 0.00 | 0.00 | 0.00 | 62 | 1010.9 |
| 20260508213046 | 13 | 0 | 0.0 | 4.8 | 0.00 | 0.00 | 0.00 | 62 | 1011.0 |
| 20260508212519 | 13 | 0 | 0.0 | 3.2 | 0.00 | 0.00 | 0.00 | 64 | 1011.0 |
| 20260508212024 | 13 | 0 | 0.0 | 3.2 | 0.00 | 0.00 | 0.00 | 67 | 1011.0 |
| 20260508211536 | 13 | 0 | 0.0 | 1.6 | 0.00 | 0.00 | 0.00 | 67 | 1011.1 |
| 20260508211022 | 13 | 0 | 0.0 | 1.6 | 0.00 | 0.00 | 0.00 | 67 | 1011.3 |
| 20260508210518 | 13 | 0 | 0.0 | 0.0 | 0.00 | 0.00 | 0.00 | 68 | 1011.4 |
| 20260508210036 | 13 | 0 | 0.0 | 0.0 | 0.00 | 0.00 | 0.00 | 67 | 1011.4 |
| 20260508205519 | 13 | 0 | 0.0 | 0.0 | 0.00 | 0.00 | 0.00 | 66 | 1011.4 |
| 20260508205018 | 13 | 0 | 0.0 | 3.2 | 0.00 | 0.00 | 0.00 | 66 | 1011.3 |
| 20260508204542 | 13 | 0 | 0.0 | 3.2 | 0.00 | 0.00 | 0.00 | 67 | 1011.5 |
| 20260508204017 | 13 | 0 | 0.0 | 3.2 | 0.00 | 0.00 | 0.00 | 69 | 1011.6 |
| 20260508203517 | 12 | 0 | 0.0 | 4.8 | 0.00 | 0.00 | 0.00 | 69 | 1011.6 |
| 20260508203050 | 12 | 0 | 0.0 | 4.8 | 0.00 | 0.00 | 0.00 | 68 | 1011.7 |
| 20260508202517 | 12 | 290 | 0.0 | 6.4 | 0.00 | 0.00 | 0.00 | 67 | 1011.7 |
| 20260508202019 | 12 | 146 | 0.0 | 8.0 | 0.00 | 0.00 | 0.00 | 68 | 1012.0 |